Weather History for Ann Arbor, MI

Change the Weather History Date:

Friday, October 4, 2013

  Actual Average Record
Temperature  
Mean Temperature 72 °F -  
Max Temperature 79 °F 63 °F 82 °F (2005)
Min Temperature 64 °F 36 °F 26 °F (2008)
Cooling Degree Days 6    
Growing Degree Days 22 (Base 50)    
Moisture  
Dew Point 64 °F    
Average Humidity 81    
Maximum Humidity 96    
Minimum Humidity 57    
Precipitation  
Precipitation 0.01 in - - ()
Sea Level Pressure  
Sea Level Pressure 30.00 in    
Wind  
Wind Speed 5 mph (SSW)    
Max Wind Speed 8 mph    
Max Gust Speed -    
Visibility 8 miles    
Events Thunderstorm    
Averages and records for this station are not official NWS values.
T = Trace of Precipitation, MM = Missing Value Source: NWS Daily Summary

Daily Weather History Graph

Daily Weather History Graph

Search for Another Location

Airport:

Trip Planner

Search our weather history database for the weather conditions in past years. The results will help you decide how hot, cold, wet, or windy it might be!

Date:

Astronomy

Oct. 04, 2013 Rise Set
Actual Time 7:35 AM EDT 7:10 PM EDT
Civil Twilight 7:07 AM EDT 7:38 PM EDT
Nautical Twilight 6:35 AM EDT 8:11 PM EDT
Astronomical Twilight 6:02 AM EDT 8:43 PM EDT
Moon 7:10 AM EDT (10/4) 6:52 PM EDT (10/4)
Length of Visible Light 12h 31m
Length of Day
11h 35m
Waning Crescent, 0% of the Moon is Illuminated
Oct 4
Waning Crescent
Oct 4
New
Oct 11
First Quarter
Oct 18
Full
Oct 26
Last Quarter

Hourly Weather History & Observations

Time (EDT) Temp. Dew Point Humidity Pressure Visibility Wind Dir Wind Speed Gust Speed Precip Events Conditions
12:53 AM 66.9 °F 64.0 °F 90% 29.95 in 7.0 mi SSW 4.6 mph - N/A   Clear
1:53 AM 64.9 °F 63.0 °F 93% 29.96 in 7.0 mi South 3.5 mph - N/A   Scattered Clouds
2:53 AM 64.9 °F 63.0 °F 93% 29.97 in 7.0 mi South 5.8 mph - N/A   Mostly Cloudy
3:53 AM 64.0 °F 62.1 °F 93% 29.95 in 7.0 mi South 4.6 mph - 0.01 in   Clear
4:53 AM 64.9 °F 62.1 °F 90% 29.95 in 6.0 mi SSW 6.9 mph - N/A   Clear
5:53 AM 64.0 °F 63.0 °F 96% 29.96 in 5.0 mi SSW 3.5 mph - N/A   Partly Cloudy
6:53 AM 64.0 °F 63.0 °F 96% 29.98 in 5.0 mi SW 4.6 mph - N/A   Partly Cloudy
7:53 AM 64.0 °F 62.1 °F 93% 30.00 in 4.0 mi WSW 4.6 mph - N/A   Clear
8:53 AM 66.0 °F 64.0 °F 93% 30.01 in 4.0 mi Calm Calm - N/A   Scattered Clouds
9:53 AM 69.1 °F 64.9 °F 87% 30.02 in 8.0 mi WSW 6.9 mph - N/A   Mostly Cloudy
10:53 AM 72.0 °F 64.0 °F 76% 30.02 in 10.0 mi West 8.1 mph - N/A   Partly Cloudy
11:53 AM 73.9 °F 63.0 °F 68% 30.01 in 10.0 mi SW 6.9 mph - N/A   Clear
12:53 PM 75.0 °F 63.0 °F 66% 30.02 in 10.0 mi SW 3.5 mph - N/A   Partly Cloudy
1:53 PM 78.1 °F 64.9 °F 64% 30.01 in 10.0 mi WSW 8.1 mph - N/A   Mostly Cloudy
2:40 PM 78.8 °F 62.6 °F 57% 30.01 in 10.0 mi WNW 4.6 mph - N/A   Overcast
2:53 PM 77.0 °F 63.0 °F 62% 30.00 in 10.0 mi SSW 4.6 mph - N/A   Overcast
3:53 PM 79.0 °F 63.0 °F 58% 29.98 in 10.0 mi Calm Calm - N/A   Scattered Clouds
4:53 PM 77.0 °F 64.0 °F 64% 29.99 in 10.0 mi SSW 5.8 mph - N/A   Partly Cloudy
5:53 PM 75.9 °F 64.9 °F 69% 30.00 in 10.0 mi SE 3.5 mph - N/A   Partly Cloudy
6:53 PM 73.9 °F 68.0 °F 82% 29.99 in 8.0 mi South 4.6 mph - N/A   Partly Cloudy
7:53 PM 72.0 °F 66.9 °F 84% 30.01 in 10.0 mi South 4.6 mph - N/A   Partly Cloudy
8:53 PM 70.0 °F 64.9 °F 84% 30.02 in 10.0 mi SSW 4.6 mph - N/A Thunderstorm Mostly Cloudy
9:16 PM 69.8 °F 64.4 °F 83% 30.02 in 10.0 mi SSW 5.8 mph - N/A   Partly Cloudy
9:53 PM 68.0 °F 64.0 °F 87% 30.01 in 10.0 mi Calm Calm - N/A   Clear
10:53 PM 66.0 °F 63.0 °F 90% 30.03 in 10.0 mi Calm Calm - N/A   Clear
11:53 PM 64.9 °F 63.0 °F 93% 30.02 in 10.0 mi SW 4.6 mph - N/A   Clear